Overview Statistics Trail Chart Weather Telemetry Raw packets
 

This is the latest recevied weather packets stored in our database for station/object N7ZEF. If no packets are shown the sender has not sent any weather packets the latest 10 day(s).

<< 21 22 23 24 25 26 27 >>
Time Temp. Humidity Pressure Rain* Wind** Luminosity Snow
1777847461 20° C 13% 1014.1 hPa 0 mm - - -
1777846860 20.56° C 12% 1014.2 hPa 0 mm - - -
1777846258 20.56° C 12% 1014.5 hPa 0 mm - - -
1777845657 20° C 13% 1014.6 hPa 0 mm - - -
1777845054 19.44° C 13% 1014.9 hPa 0 mm - - -
1777844453 19.44° C 14% 1015 hPa 0 mm - - -
1777843852 18.89° C 14% 1015.2 hPa 0 mm - - -
1777843250 18.89° C 14% 1015.5 hPa 0 mm - - -
1777842649 18.33° C 14% 1015.6 hPa 0 mm - - -
1777842047 18.89° C 15% 1015.7 hPa 0 mm - - -
1777841446 18.89° C 15% 1016 hPa 0 mm - - -
1777840845 18.89° C 14% 1016.1 hPa 0 mm - - -
1777840243 19.44° C 13% 1016.4 hPa 0 mm - - -
1777839642 19.44° C 14% 1016.4 hPa 0 mm - - -
1777839041 18.33° C 14% 1016.8 hPa 0 mm - - -
1777838439 18.89° C 16% 1016.8 hPa 0 mm - - -
1777837838 17.78° C 16% 1016.9 hPa 0 mm - - -
1777837236 18.33° C 15% 1016.9 hPa 0 mm - - -
1777836639 18.33° C 16% 1017 hPa 0 mm - - -
1777836034 18.89° C 16% 1017.3 hPa 0 mm - - -
1777835432 18.33° C 16% 1017.3 hPa 0 mm - - -
1777834831 17.78° C 16% 1017.5 hPa 0 mm - - -
1777834230 18.33° C 15% 1017.7 hPa 0 mm - - -
1777833628 17.78° C 17% 1017.9 hPa 0 mm - - -
1777833027 17.78° C 17% 1018.2 hPa 0 mm - - -

* Rain latest hour (hover to see other rain measurements)
** Current wind speed in m/s (hover to see current wind gust speed)